Location: Aldenham
(51.6667°N, 0.3500°W)
Time: 06:49:00
(UTC+00:00)

Altair - Pass Details

Date: 21 February 2026
Orbit: 1502 x 1682 km, 47.2° (Epoch: 9 March)

Event Time Altitude Azimuth Distance (km) Brightness Sun altitude
Rises 07:52:04 0° 275° (W) 4,665 9.4 6.2°
Reaches altitude 10° 07:55:06 10° 272° (W) 3,698 9.0 6.6°
Maximum altitude 08:04:14 62° 196° (SSW) 1,736 8.1 7.9°
Drops below altitude 10° 08:13:42 10° 119° (ESE) 3,826 14.0 9.1°
Sets 08:16:54 0° 116° (ESE) 4,834 12.4 9.6°
